Time,TemperatureF,DewpointF,PressureIn,WindDirection,WindDirectionDegrees,WindSpeedMPH,WindSpeedGustMPH,Humidity,HourlyPrecipIn,Conditions,Clouds,dailyrainin,SoftwareType,DateUTC
2015-07-31 00:03:00,67.0,61.0,30.00,West,262,0.0,0.0,82,-99.99,,,-99.99,,2015-07-31 04:03:00,
2015-07-31 00:23:00,67.0,61.0,30.00,West,261,0.0,0.0,82,-99.99,,,-99.99,,2015-07-31 04:23:00,
2015-07-31 00:33:00,67.0,62.0,30.00,West,262,0.0,0.0,83,-99.99,,,-99.99,,2015-07-31 04:33:00,
2015-07-31 00:43:00,66.0,61.0,30.00,West,262,0.0,0.0,83,-99.99,,,-99.99,,2015-07-31 04:43:00,
2015-07-31 00:53:00,66.0,61.0,30.00,West,262,0.0,0.0,83,-99.99,,,-99.99,,2015-07-31 04:53:00,
2015-07-31 01:04:00,66.0,61.0,30.01,West,261,0.0,0.0,84,-99.99,,,-99.99,,2015-07-31 05:04:00,
2015-07-31 01:13:00,66.0,61.0,30.01,West,262,0.0,0.0,85,-99.99,,,-99.99,,2015-07-31 05:13:00,
2015-07-31 01:23:00,66.0,61.0,30.01,West,262,0.0,0.0,85,-99.99,,,-99.99,,2015-07-31 05:23:00,
2015-07-31 01:33:00,65.0,61.0,30.01,West,262,0.0,0.0,86,-99.99,,,-99.99,,2015-07-31 05:33:00,
2015-07-31 01:46:00,65.0,61.0,30.00,West,261,0.0,0.0,86,-99.99,,,-99.99,,2015-07-31 05:46:00,
2015-07-31 01:53:00,65.0,61.0,30.00,West,261,0.0,0.0,86,-99.99,,,-99.99,,2015-07-31 05:53:00,
2015-07-31 02:04:00,64.0,60.0,30.00,West,261,0.0,0.0,87,-99.99,,,-99.99,,2015-07-31 06:04:00,
2015-07-31 02:13:00,64.0,60.0,30.00,West,262,0.0,0.0,87,-99.99,,,-99.99,,2015-07-31 06:13:00,
2015-07-31 02:23:00,64.0,60.0,30.00,West,262,0.0,0.0,87,-99.99,,,-99.99,,2015-07-31 06:23:00,
2015-07-31 02:33:00,64.0,60.0,30.00,West,262,0.0,0.0,87,-99.99,,,-99.99,,2015-07-31 06:33:00,
2015-07-31 02:44:00,64.0,60.0,30.00,West,262,0.0,0.0,87,-99.99,,,-99.99,,2015-07-31 06:44:00,
2015-07-31 02:54:00,64.0,60.0,30.00,West,262,0.0,0.0,87,-99.99,,,-99.99,,2015-07-31 06:54:00,
2015-07-31 03:03:00,64.0,60.0,30.00,West,262,0.0,0.0,87,-99.99,,,-99.99,,2015-07-31 07:03:00,
2015-07-31 03:12:00,64.0,60.0,29.99,West,261,0.0,0.0,87,-99.99,,,-99.99,,2015-07-31 07:12:00,
2015-07-31 03:23:00,64.0,60.0,29.99,West,261,0.0,0.0,87,-99.99,,,-99.99,,2015-07-31 07:23:00,
2015-07-31 03:33:00,65.0,61.0,29.99,West,261,0.0,0.0,87,-99.99,,,-99.99,,2015-07-31 07:33:00,
2015-07-31 03:43:00,65.0,61.0,29.99,West,269,0.0,0.0,86,-99.99,,,-99.99,,2015-07-31 07:43:00,
2015-07-31 03:53:00,65.0,61.0,29.99,West,269,0.0,0.0,86,-99.99,,,-99.99,,2015-07-31 07:53:00,
2015-07-31 04:03:00,66.0,62.0,29.99,West,269,0.0,0.0,86,-99.99,,,-99.99,,2015-07-31 08:03:00,
2015-07-31 04:13:00,66.0,62.0,29.99,West,267,0.0,-999.0,86,-99.99,,,-99.99,,2015-07-31 08:13:00,
2015-07-31 04:23:00,66.0,62.0,29.99,West,267,0.0,0.0,86,-99.99,,,-99.99,,2015-07-31 08:23:00,
2015-07-31 04:33:00,66.0,62.0,29.99,West,267,1.0,2.0,86,-99.99,,,-99.99,,2015-07-31 08:33:00,
2015-07-31 04:43:00,65.0,61.0,29.98,West,267,0.0,1.0,87,-99.99,,,-99.99,,2015-07-31 08:43:00,
2015-07-31 04:53:00,65.0,61.0,29.98,West,267,0.0,1.0,87,-99.99,,,-99.99,,2015-07-31 08:53:00,
2015-07-31 05:03:00,65.0,61.0,29.98,West,267,0.0,0.0,87,-99.99,,,-99.99,,2015-07-31 09:03:00,
2015-07-31 05:13:00,64.0,60.0,29.98,WSW,256,0.0,0.0,87,-99.99,,,-99.99,,2015-07-31 09:13:00,
2015-07-31 05:23:00,64.0,60.0,29.98,WSW,256,0.0,0.0,87,-99.99,,,-99.99,,2015-07-31 09:23:00,
2015-07-31 05:33:00,64.0,60.0,29.98,WSW,256,0.0,0.0,88,-99.99,,,-99.99,,2015-07-31 09:33:00,
2015-07-31 05:43:00,64.0,60.0,29.98,WSW,256,0.0,0.0,88,-99.99,,,-99.99,,2015-07-31 09:43:00,
2015-07-31 05:53:00,64.0,60.0,29.98,WSW,256,0.0,0.0,88,-99.99,,,-99.99,,2015-07-31 09:53:00,
2015-07-31 06:03:00,63.0,59.0,29.98,WSW,256,0.0,0.0,88,-99.99,,,-99.99,,2015-07-31 10:03:00,
2015-07-31 06:12:00,63.0,59.0,29.98,WSW,256,0.0,0.0,88,-99.99,,,-99.99,,2015-07-31 10:12:00,
2015-07-31 06:23:00,63.0,59.0,29.98,WSW,256,0.0,-999.0,88,-99.99,,,-99.99,,2015-07-31 10:23:00,
2015-07-31 06:33:00,63.0,59.0,29.98,WSW,256,0.0,0.0,88,-99.99,,,-99.99,,2015-07-31 10:33:00,
2015-07-31 06:44:00,63.0,59.0,29.98,WSW,256,0.0,0.0,88,-99.99,,,-99.99,,2015-07-31 10:44:00,
2015-07-31 06:53:00,63.0,59.0,29.98,WSW,256,0.0,0.0,88,-99.99,,,-99.99,,2015-07-31 10:53:00,
2015-07-31 07:03:00,63.0,59.0,29.99,WSW,256,0.0,0.0,88,-99.99,,,-99.99,,2015-07-31 11:03:00,
2015-07-31 07:13:00,63.0,59.0,29.99,WSW,256,0.0,0.0,88,-99.99,,,-99.99,,2015-07-31 11:13:00,
2015-07-31 07:23:00,63.0,59.0,29.99,WSW,256,0.0,0.0,88,-99.99,,,-99.99,,2015-07-31 11:23:00,
2015-07-31 07:36:00,63.0,60.0,29.99,WSW,256,0.0,0.0,89,-99.99,,,-99.99,,2015-07-31 11:36:00,
2015-07-31 07:44:00,63.0,60.0,30.00,WSW,256,0.0,0.0,89,-99.99,,,-99.99,,2015-07-31 11:44:00,
2015-07-31 07:54:00,63.0,60.0,30.00,WSW,256,0.0,0.0,89,-99.99,,,-99.99,,2015-07-31 11:54:00,
2015-07-31 08:03:00,64.0,61.0,30.00,WSW,256,0.0,0.0,89,-99.99,,,-99.99,,2015-07-31 12:03:00,
2015-07-31 08:13:00,66.0,62.0,30.01,WSW,256,0.0,2.0,88,-99.99,,,-99.99,,2015-07-31 12:13:00,
2015-07-31 08:23:00,66.0,62.0,30.01,WSW,256,0.0,2.0,88,-99.99,,,-99.99,,2015-07-31 12:23:00,
2015-07-31 08:34:00,67.0,63.0,30.01,WSW,248,0.0,3.0,87,-99.99,,,-99.99,,2015-07-31 12:34:00,
2015-07-31 08:44:00,69.0,64.0,30.01,WSW,245,1.0,4.0,84,-99.99,,,-99.99,,2015-07-31 12:44:00,
2015-07-31 08:54:00,69.0,64.0,30.01,WSW,245,1.0,4.0,84,-99.99,,,-99.99,,2015-07-31 12:54:00,
2015-07-31 09:03:00,70.0,64.0,30.01,WSW,252,1.0,5.0,82,-99.99,,,-99.99,,2015-07-31 13:03:00,
2015-07-31 09:13:00,71.0,65.0,30.01,WSW,245,0.0,2.0,81,-99.99,,,-99.99,,2015-07-31 13:13:00,
2015-07-31 09:23:00,71.0,65.0,30.01,WSW,245,0.0,2.0,81,-99.99,,,-99.99,,2015-07-31 13:23:00,
2015-07-31 09:34:00,72.0,65.0,30.01,WSW,252,1.0,4.0,80,-99.99,,,-99.99,,2015-07-31 13:34:00,
2015-07-31 09:43:00,74.0,67.0,30.01,West,261,0.0,1.0,78,-99.99,,,-99.99,,2015-07-31 13:43:00,
2015-07-31 10:03:00,75.0,67.0,30.00,WNW,283,0.0,3.0,77,-99.99,,,-99.99,,2015-07-31 14:03:00,
2015-07-31 10:13:00,76.0,68.0,30.00,WSW,256,0.0,-999.0,77,-99.99,,,-99.99,,2015-07-31 14:13:00,
2015-07-31 10:23:00,76.0,68.0,30.00,WSW,256,0.0,4.0,77,-99.99,,,-99.99,,2015-07-31 14:23:00,
2015-07-31 10:35:00,77.0,68.0,30.00,WSW,255,1.0,5.0,73,-99.99,,,-99.99,,2015-07-31 14:35:00,
2015-07-31 10:43:00,78.0,68.0,29.99,West,269,2.0,6.0,72,-99.99,,,-99.99,,2015-07-31 14:43:00,
2015-07-31 10:53:00,78.0,68.0,29.99,West,269,2.0,6.0,72,-99.99,,,-99.99,,2015-07-31 14:53:00,
2015-07-31 11:04:00,79.0,69.0,29.99,NW,319,2.0,4.0,71,-99.99,,,-99.99,,2015-07-31 15:04:00,
2015-07-31 11:12:00,79.0,69.0,29.99,West,267,0.0,4.0,71,-99.99,,,-99.99,,2015-07-31 15:12:00,
2015-07-31 11:23:00,79.0,69.0,29.99,West,267,0.0,4.0,71,-99.99,,,-99.99,,2015-07-31 15:23:00,
2015-07-31 11:33:00,81.0,69.0,29.99,West,273,2.0,7.0,67,-99.99,,,-99.99,,2015-07-31 15:33:00,
2015-07-31 11:44:00,82.0,69.0,29.99,West,260,2.0,4.0,66,-99.99,,,-99.99,,2015-07-31 15:44:00,
2015-07-31 11:53:00,82.0,69.0,29.99,West,260,2.0,4.0,66,-99.99,,,-99.99,,2015-07-31 15:53:00,
2015-07-31 12:04:00,82.0,68.0,29.99,WNW,297,3.0,7.0,62,-99.99,,,-99.99,,2015-07-31 16:04:00,
2015-07-31 12:13:00,83.0,67.0,29.99,West,273,2.0,5.0,59,-99.99,,,-99.99,,2015-07-31 16:13:00,
2015-07-31 12:24:00,83.0,67.0,29.99,West,273,2.0,5.0,59,-99.99,,,-99.99,,2015-07-31 16:24:00,
2015-07-31 12:34:00,84.0,66.0,29.99,West,269,3.0,-999.0,54,-99.99,,,-99.99,,2015-07-31 16:34:00,
2015-07-31 12:56:00,84.0,63.0,29.98,WSW,252,2.0,11.0,50,-99.99,,,-99.99,,2015-07-31 16:56:00,
2015-07-31 13:04:00,84.0,63.0,29.98,WSW,252,2.0,11.0,50,-99.99,,,-99.99,,2015-07-31 17:04:00,
2015-07-31 13:13:00,85.0,65.0,29.98,WSW,250,1.0,6.0,51,-99.99,,,-99.99,,2015-07-31 17:13:00,
2015-07-31 13:23:00,85.0,65.0,29.98,WSW,250,1.0,6.0,51,-99.99,,,-99.99,,2015-07-31 17:23:00,
2015-07-31 13:36:00,85.0,64.0,29.97,WSW,248,5.0,10.0,50,-99.99,,,-99.99,,2015-07-31 17:36:00,
2015-07-31 13:44:00,85.0,62.0,29.97,West,260,2.0,11.0,46,-99.99,,,-99.99,,2015-07-31 17:44:00,
2015-07-31 13:54:00,85.0,62.0,29.97,West,260,2.0,11.0,46,-99.99,,,-99.99,,2015-07-31 17:54:00,
2015-07-31 14:04:00,86.0,62.0,29.97,WSW,255,3.0,8.0,45,-99.99,,,-99.99,,2015-07-31 18:04:00,
2015-07-31 14:13:00,85.0,63.0,29.96,West,264,3.0,9.0,48,-99.99,,,-99.99,,2015-07-31 18:13:00,
2015-07-31 14:24:00,85.0,63.0,29.96,West,264,3.0,9.0,48,-99.99,,,-99.99,,2015-07-31 18:24:00,
2015-07-31 14:34:00,85.0,62.0,29.96,NW,314,3.0,10.0,46,-99.99,,,-99.99,,2015-07-31 18:34:00,
2015-07-31 14:44:00,87.0,62.0,29.95,NE,38,0.0,7.0,44,-99.99,,,-99.99,,2015-07-31 18:44:00,
2015-07-31 14:54:00,87.0,62.0,29.95,NE,38,0.0,7.0,44,-99.99,,,-99.99,,2015-07-31 18:54:00,
2015-07-31 15:04:00,88.0,63.0,29.95,WSW,249,1.0,7.0,43,-99.99,,,-99.99,,2015-07-31 19:04:00,
2015-07-31 15:13:00,87.0,60.0,29.94,West,269,3.0,9.0,40,-99.99,,,-99.99,,2015-07-31 19:13:00,
2015-07-31 15:23:00,87.0,60.0,29.94,West,269,3.0,-999.0,40,-99.99,,,-99.99,,2015-07-31 19:23:00,
2015-07-31 15:34:00,88.0,61.0,29.94,West,276,3.0,12.0,41,-99.99,,,-99.99,,2015-07-31 19:34:00,
2015-07-31 15:46:00,88.0,63.0,29.94,ESE,106,0.0,13.0,44,-99.99,,,-99.99,,2015-07-31 19:46:00,
2015-07-31 15:54:00,88.0,63.0,29.94,ESE,106,0.0,13.0,44,-99.99,,,-99.99,,2015-07-31 19:54:00,
2015-07-31 16:05:00,89.0,63.0,29.94,West,269,3.0,12.0,42,-99.99,,,-99.99,,2015-07-31 20:05:00,
2015-07-31 16:13:00,88.0,63.0,29.93,NW,311,1.0,7.0,43,-99.99,,,-99.99,,2015-07-31 20:13:00,
2015-07-31 16:23:00,88.0,63.0,29.93,NW,311,1.0,7.0,43,-99.99,,,-99.99,,2015-07-31 20:23:00,
2015-07-31 16:34:00,89.0,63.0,29.93,WNW,294,3.0,8.0,42,-99.99,,,-99.99,,2015-07-31 20:34:00,
2015-07-31 16:44:00,87.0,62.0,29.93,WNW,302,3.0,8.0,44,-99.99,,,-99.99,,2015-07-31 20:44:00,
2015-07-31 16:53:00,87.0,62.0,29.93,WNW,302,3.0,8.0,44,-99.99,,,-99.99,,2015-07-31 20:53:00,
2015-07-31 17:03:00,85.0,64.0,29.93,WNW,285,1.0,8.0,50,-99.99,,,-99.99,,2015-07-31 21:03:00,
2015-07-31 17:13:00,86.0,65.0,29.92,ESE,107,2.0,9.0,49,-99.99,,,-99.99,,2015-07-31 21:13:00,
2015-07-31 17:24:00,86.0,65.0,29.92,ESE,107,2.0,-999.0,49,-99.99,,,-99.99,,2015-07-31 21:24:00,
2015-07-31 17:34:00,87.0,64.0,29.92,West,271,2.0,5.0,47,-99.99,,,-99.99,,2015-07-31 21:34:00,
2015-07-31 17:44:00,86.0,64.0,29.91,West,267,1.0,5.0,48,-99.99,,,-99.99,,2015-07-31 21:44:00,
2015-07-31 17:54:00,86.0,64.0,29.91,West,267,1.0,5.0,48,-99.99,,,-99.99,,2015-07-31 21:54:00,
2015-07-31 18:04:00,87.0,63.0,29.91,West,262,1.0,11.0,45,-99.99,,,-99.99,,2015-07-31 22:04:00,
2015-07-31 18:13:00,87.0,62.0,29.91,WNW,290,2.0,7.0,44,-99.99,,,-99.99,,2015-07-31 22:13:00,
2015-07-31 18:24:00,87.0,62.0,29.91,WNW,290,2.0,7.0,44,-99.99,,,-99.99,,2015-07-31 22:24:00,
2015-07-31 18:33:00,86.0,62.0,29.90,West,278,3.0,6.0,44,-99.99,,,-99.99,,2015-07-31 22:33:00,
2015-07-31 18:46:00,87.0,62.0,29.90,West,270,3.0,5.0,44,-99.99,,,-99.99,,2015-07-31 22:46:00,
2015-07-31 18:53:00,87.0,62.0,29.90,West,270,3.0,5.0,44,-99.99,,,-99.99,,2015-07-31 22:53:00,
2015-07-31 19:04:00,86.0,63.0,29.89,WNW,294,2.0,7.0,46,-99.99,,,-99.99,,2015-07-31 23:04:00,
2015-07-31 19:13:00,87.0,63.0,29.89,WSW,245,1.0,3.0,45,-99.99,,,-99.99,,2015-07-31 23:13:00,
2015-07-31 19:24:00,87.0,63.0,29.89,WSW,245,1.0,3.0,45,-99.99,,,-99.99,,2015-07-31 23:24:00,
2015-07-31 19:33:00,85.0,63.0,29.89,West,262,3.0,7.0,48,-99.99,,,-99.99,,2015-07-31 23:33:00,